Flag for Israel Weather past 2 weeks in Hadera, Israel

Now
77 °F

Clear.


Feels Like: 79 °F
Forecast: 71 / 92 °F
Wind: 3 mph from North

Location: Ben Gurion International Airport

Current Time: Aug 21, 2014 at 3:47:07 AM

Latest Report: Aug 21, 2014 at 2:50 AM


Visibility: 10 mi

Pressure: 29.89 "Hg

Humidity: 69%

Dew point: 66 °F

Location of HaderaLocation

Historic Weather in Hadera — Graph

°F

Hadera temperature yesterday

Maximum temperature yesterday: 91 °F (at 11:20 AM)
Minimum temperature yesterday: 75 °F (at 5:20 AM)
Average temperature yesterday: 83 °F

Past Weeks' High & Low Weather Summary

 TemperatureHumidityPressure
High102 °F (Aug 12, 7:20 PM)89% (Aug 14, 5:50 AM)29.95 "Hg (Aug 14, 5:50 AM)
Low73 °F (Aug 7, 5:50 AM)37% (Aug 12, 7:20 PM)29.62 "Hg (Aug 17, 1:20 PM)
Average83 °F67%29.77 "Hg
* Reported Aug 6 2:20 AM — Aug 21 2:20 AM, Hadera, Weather by CustomWeather, © 2014

Note: Actual official high and low records may vary slightly from our data, if they occured in-between our weather recording intervals... More about our weather records

Advertising

Hadera weather history for previous 24 hours

 ConditionsComfort  
Time TempWeatherWind HumidityBarometerVisibility
2:20 AM
Aug 21
77 °FClear.5 mph69%29.89 "Hg10 mi
1:50 AM77 °FClear.5 mph69%29.89 "Hg10 mi
1:20 AM79 °FClear.5 mph70%29.92 "Hg10 mi
12:50 AM79 °FClear.5 mph70%29.92 "Hg10 mi
12:20 AM79 °FClear.5 mph70%29.92 "Hg10 mi
11:50 PM
Aug 20
79 °FClear.5 mph70%29.92 "Hg10 mi
11:20 PM81 °FClear.5 mph66%29.92 "Hg10 mi
10:50 PM81 °FClear.7 mph66%29.92 "Hg10 mi
10:20 PM81 °FClear.7 mph74%29.92 "Hg10 mi
9:50 PM81 °FClear.7 mph70%29.92 "Hg10 mi
9:20 PM81 °FClear.7 mph70%29.92 "Hg10 mi
8:50 PM81 °FClear.8 mph70%29.92 "Hg10 mi
8:20 PM82 °FClear.7 mph66%29.89 "Hg10 mi
7:50 PM82 °FSunny.9 mph66%29.89 "Hg10 mi
7:20 PM82 °FSunny.10 mph66%29.89 "Hg10 mi
6:50 PM84 °FSunny.9 mph62%29.89 "Hg10 mi
6:20 PM86 °FSunny.9 mph55%29.89 "Hg10 mi
5:50 PM88 °FSunny.12 mph55%29.89 "Hg10 mi
5:20 PM88 °FSunny.12 mph55%29.89 "Hg10 mi
4:50 PM90 °FSunny.10 mph52%29.89 "Hg10 mi
4:20 PM90 °FSunny.12 mph49%29.89 "Hg10 mi
3:50 PM90 °FPassing clouds.12 mph52%29.89 "HgN/A
3:20 PM90 °FSunny.13 mph49%29.89 "Hg10 mi
2:50 PM90 °FSunny.13 mph49%29.89 "Hg10 mi
2:20 PM90 °FSunny.14 mph49%29.89 "Hg10 mi
1:50 PM90 °FSunny.14 mph52%29.89 "Hg10 mi
1:20 PM90 °FPassing clouds.10 mph52%29.89 "HgN/A
12:50 PM90 °FPassing clouds.13 mph52%29.89 "HgN/A
12:20 PM90 °FPassing clouds.10 mph52%29.92 "HgN/A
11:50 AM91 °FSunny.6 mph49%29.92 "Hg10 mi
11:20 AM91 °FPassing clouds.2 mph46%29.92 "HgN/A
10:50 AM90 °FPassing clouds.3 mph49%29.92 "HgN/A
10:20 AM88 °FPassing clouds.3 mph52%29.95 "HgN/A
9:50 AM88 °FPassing clouds.3 mph49%29.95 "HgN/A
9:20 AM86 °FPassing clouds.5 mph55%29.95 "HgN/A
8:50 AM86 °FPassing clouds.2 mph59%29.95 "HgN/A
8:20 AM84 °FPassing clouds.3 mph62%29.95 "HgN/A
7:50 AM82 °FSunny.3 mph62%29.92 "Hg10 mi
7:20 AM79 °FPassing clouds.3 mph70%29.92 "HgN/A
6:50 AM77 °FPassing clouds.3 mph74%29.92 "HgN/A
6:20 AM75 °FPassing clouds.1 mph78%29.92 "HgN/A
5:50 AM75 °FPassing clouds.1 mph78%29.92 "HgN/A
5:20 AM75 °FClear.3 mph78%29.89 "Hg10 mi
4:50 AM77 °FClear.5 mph79%29.89 "Hg10 mi
4:20 AM77 °FClear.7 mph79%29.89 "Hg10 mi
3:50 AM77 °FClear.7 mph74%29.89 "Hg10 mi
3:20 AM77 °FClear.5 mph74%29.89 "Hg10 mi
Weather by CustomWeather, © 2014

See weather overviewHow to use our weather pages